| time (UTC) | temp F | wind direction | speed MPH | gust MPH | rain 1hr in | rain 24hr in | rain mn in | humidity % | barometer mb |
| 20260906095402 | 64 | 308 | 0.0 | 0.0 | 0.00 | 0.00 | 0.00 | 99 | 1014.7 |
| 20260906094856 | 65 | 288 | 0.0 | 0.0 | 0.00 | 0.00 | 0.00 | 99 | 1014.8 |
| 20260906094351 | 66 | 288 | 0.0 | 0.0 | 0.00 | 0.00 | 0.00 | 99 | 1014.7 |
| 20260906093847 | 65 | 262 | 0.0 | 0.0 | 0.00 | 0.00 | 0.00 | 99 | 1014.6 |
| 20260906093343 | 65 | 151 | 0.0 | 0.0 | 0.00 | 0.00 | 0.00 | 99 | 1014.4 |
| 20260906092842 | 67 | 150 | 0.0 | 0.0 | 0.00 | 0.00 | 0.00 | 99 | 1014.4 |
| 20260906092337 | 67 | 169 | 0.0 | 0.0 | 0.00 | 0.00 | 0.00 | 99 | 1014.5 |
| 20260906091833 | 67 | 190 | 0.0 | 0.0 | 0.00 | 0.00 | 0.00 | 99 | 1014.3 |
| 20260906091329 | 67 | 187 | 0.0 | 0.0 | 0.00 | 0.00 | 0.00 | 99 | 1014.5 |
| 20260906090825 | 66 | 191 | 0.0 | 0.0 | 0.00 | 0.00 | 0.00 | 99 | 1014.1 |
| 20260906090324 | 67 | 189 | 0.0 | 0.0 | 0.00 | 0.00 | 0.00 | 99 | 1014.2 |
| 20260906085819 | 67 | 154 | 0.0 | 0.0 | 0.00 | 0.00 | 0.00 | 99 | 1014.0 |
| 20260906085318 | 67 | 148 | 0.0 | 0.0 | 0.00 | 0.00 | 0.00 | 99 | 1013.9 |
| 20260906084812 | 67 | 182 | 1.0 | 1.0 | 0.00 | 0.00 | 0.00 | 99 | 1014.0 |
| 20260906084312 | 67 | 181 | 0.0 | 0.0 | 0.00 | 0.00 | 0.00 | 99 | 1014.1 |
| 20260906083807 | 68 | 181 | 0.0 | 0.0 | 0.00 | 0.00 | 0.00 | 99 | 1013.9 |
| 20260906083302 | 68 | 181 | 0.0 | 0.0 | 0.00 | 0.00 | 0.00 | 99 | 1013.6 |
| 20260906082757 | 68 | 179 | 0.0 | 0.0 | 0.00 | 0.00 | 0.00 | 99 | 1013.7 |
| 20260906082252 | 68 | 170 | 0.0 | 0.0 | 0.00 | 0.00 | 0.00 | 99 | 1014.0 |
| 20260906081748 | 68 | 154 | 0.0 | 1.0 | 0.00 | 0.00 | 0.00 | 99 | 1013.9 |
| 20260906081243 | 68 | 90 | 0.0 | 0.0 | 0.00 | 0.00 | 0.00 | 99 | 1013.7 |
| 20260906080740 | 68 | 184 | 0.0 | 0.0 | 0.00 | 0.00 | 0.00 | 99 | 1013.6 |
| 20260906080236 | 69 | 178 | 0.0 | 0.0 | 0.00 | 0.00 | 0.00 | 99 | 1014.0 |
| 20260906075730 | 68 | 168 | 0.0 | 0.0 | 0.00 | 0.00 | 0.00 | 99 | 1013.7 |
| 20260906075229 | 68 | 124 | 0.0 | 0.0 | 0.00 | 0.00 | 0.00 | 99 | 1013.6 |
| 20260906074725 | 69 | 91 | 0.0 | 0.0 | 0.00 | 0.00 | 0.00 | 99 | 1013.7 |
| 20260906074224 | 69 | 153 | 0.0 | 0.0 | 0.00 | 0.00 | 0.00 | 99 | 1013.6 |
| 20260906073724 | 69 | 99 | 0.0 | 1.0 | 0.00 | 0.00 | 0.00 | 99 | 1013.7 |
| 20260906073219 | 69 | 98 | 0.0 | 0.0 | 0.00 | 0.00 | 0.00 | 99 | 1013.7 |
| 20260906072715 | 69 | 186 | 0.0 | 0.0 | 0.00 | 0.00 | 0.00 | 99 | 1013.7 |
| 20260906072210 | 68 | 160 | 0.0 | 0.0 | 0.00 | 0.00 | 0.00 | 99 | 1014.1 |
| 20260906071706 | 69 | 98 | 0.0 | 0.0 | 0.00 | 0.00 | 0.00 | 99 | 1014.1 |
| 20260906071201 | 68 | 89 | 1.0 | 1.0 | 0.00 | 0.00 | 0.00 | 99 | 1014.0 |
| 20260906070658 | 68 | 107 | 0.0 | 0.0 | 0.00 | 0.00 | 0.00 | 99 | 1014.0 |
| 20260906070153 | 69 | 107 | 0.0 | 0.0 | 0.00 | 0.00 | 0.00 | 99 | 1014.1 |
| 20260906065652 | 69 | 172 | 0.0 | 0.0 | 0.00 | 0.00 | 0.00 | 99 | 1014.3 |
| 20260906065148 | 69 | 190 | 0.0 | 0.0 | 0.00 | 0.00 | 0.00 | 99 | 1014.3 |
| 20260906064643 | 69 | 222 | 0.0 | 0.0 | 0.00 | 0.00 | 0.00 | 99 | 1014.4 |
| 20260906064138 | 69 | 207 | 0.0 | 0.0 | 0.00 | 0.00 | 0.00 | 99 | 1014.3 |
| 20260906063633 | 69 | 179 | 0.0 | 0.0 | 0.00 | 0.00 | 0.00 | 99 | 1014.4 |
| 20260906063129 | 70 | 153 | 0.0 | 0.0 | 0.00 | 0.00 | 0.00 | 99 | 1014.4 |
| 20260906062625 | 70 | 159 | 0.0 | 0.0 | 0.00 | 0.00 | 0.00 | 99 | 1014.6 |
| 20260906062123 | 70 | 159 | 0.0 | 0.0 | 0.00 | 0.00 | 0.00 | 99 | 1014.4 |
| 20260906061620 | 71 | 176 | 0.0 | 0.0 | 0.00 | 0.00 | 0.00 | 99 | 1014.2 |
| 20260906061119 | 71 | 188 | 0.0 | 0.0 | 0.00 | 0.00 | 0.00 | 99 | 1014.0 |
| 20260906060616 | 71 | 165 | 2.0 | 2.0 | 0.00 | 0.00 | 0.00 | 99 | 1014.2 |
| 20260906060114 | 71 | 81 | 1.0 | 2.0 | 0.00 | 0.00 | 0.00 | 99 | 1014.2 |
| 20260906055609 | 71 | 82 | 0.0 | 0.0 | 0.00 | 0.00 | 0.00 | 99 | 1014.2 |
| 20260906055104 | 71 | 90 | 0.0 | 1.0 | 0.00 | 0.00 | 0.00 | 99 | 1014.1 |
| 20260906054604 | 71 | 187 | 0.0 | 0.0 | 0.00 | 0.00 | 0.00 | 99 | 1014.1 |
| 20260906054059 | 71 | 178 | 0.0 | 0.0 | 0.00 | 0.00 | 0.00 | 99 | 1013.9 |
| 20260906053555 | 71 | 178 | 1.0 | 1.0 | 0.00 | 0.00 | 0.00 | 99 | 1014.0 |
| 20260906053051 | 71 | 186 | 0.0 | 1.0 | 0.00 | 0.00 | 0.00 | 99 | 1013.9 |
| 20260906052546 | 71 | 192 | 0.0 | 0.0 | 0.00 | 0.00 | 0.00 | 99 | 1013.9 |
| 20260906052043 | 71 | 191 | 0.0 | 0.0 | 0.00 | 0.00 | 0.00 | 99 | 1013.7 |
| 20260906051538 | 71 | 219 | 0.0 | 0.0 | 0.00 | 0.00 | 0.00 | 99 | 1013.9 |
| 20260906051034 | 71 | 226 | 0.0 | 0.0 | 0.00 | 0.00 | 0.00 | 99 | 1014.0 |
| 20260906050529 | 72 | 127 | 0.0 | 0.0 | 0.00 | 0.00 | 0.00 | 99 | 1014.2 |
| 20260906050024 | 72 | 159 | 0.0 | 0.0 | 0.00 | 0.00 | 0.00 | 99 | 1014.1 |
| 20260906045522 | 72 | 99 | 0.0 | 0.0 | 0.00 | 0.00 | 0.00 | 99 | 1014.0 |
| 20260906045018 | 72 | 71 | 1.0 | 2.0 | 0.00 | 0.00 | 0.00 | 99 | 1014.1 |
| 20260906044513 | 72 | 73 | 1.0 | 2.0 | 0.00 | 0.00 | 0.00 | 99 | 1014.2 |
| 20260906044003 | 72 | 168 | 0.0 | 1.0 | 0.00 | 0.00 | 0.00 | 99 | 1014.0 |
| 20260906043458 | 72 | 93 | 0.0 | 0.0 | 0.00 | 0.00 | 0.00 | 99 | 1014.0 |
| 20260906042949 | 72 | 106 | 0.0 | 0.0 | 0.00 | 0.00 | 0.00 | 99 | 1014.2 |
| 20260906042448 | 73 | 118 | 0.0 | 0.0 | 0.00 | 0.00 | 0.00 | 99 | 1014.2 |
| 20260906041947 | 73 | 117 | 0.0 | 0.0 | 0.00 | 0.00 | 0.00 | 99 | 1014.0 |
| 20260906041444 | 73 | 149 | 0.0 | 0.0 | 0.00 | 0.00 | 0.00 | 99 | 1014.0 |
| 20260906040943 | 73 | 79 | 0.0 | 1.0 | 0.00 | 0.00 | 0.00 | 99 | 1013.7 |
| 20260906040438 | 73 | 113 | 0.0 | 0.0 | 0.00 | 0.00 | 0.00 | 99 | 1013.6 |
| 20260906035933 | 73 | 160 | 1.0 | 2.0 | 0.00 | 0.00 | 0.00 | 99 | 1013.9 |
| 20260906035429 | 73 | 142 | 1.0 | 1.0 | 0.00 | 0.00 | 0.00 | 99 | 1013.9 |
| 20260906034925 | 73 | 106 | 2.0 | 3.0 | 0.00 | 0.00 | 0.00 | 99 | 1013.9 |
| 20260906034425 | 73 | 169 | 0.0 | 0.0 | 0.00 | 0.00 | 0.00 | 99 | 1013.9 |
| 20260906033921 | 73 | 83 | 3.0 | 3.0 | 0.00 | 0.00 | 0.00 | 99 | 1013.7 |
| 20260906033420 | 73 | 93 | 1.0 | 2.0 | 0.00 | 0.00 | 0.00 | 99 | 1013.9 |
| 20260906032916 | 73 | 215 | 0.0 | 0.0 | 0.00 | 0.00 | 0.00 | 99 | 1013.7 |
| 20260906032412 | 73 | 326 | 0.0 | 0.0 | 0.00 | 0.00 | 0.00 | 99 | 1013.6 |
| 20260906031906 | 73 | 325 | 0.0 | 0.0 | 0.00 | 0.00 | 0.00 | 99 | 1013.9 |
| 20260906031402 | 73 | 325 | 0.0 | 0.0 | 0.00 | 0.00 | 0.00 | 99 | 1013.4 |
| 20260906030857 | 72 | 323 | 0.0 | 0.0 | 0.00 | 0.00 | 0.00 | 99 | 1013.4 |
| 20260906030352 | 72 | 322 | 0.0 | 0.0 | 0.00 | 0.00 | 0.00 | 99 | 1013.5 |
| 20260906025847 | 73 | 323 | 0.0 | 0.0 | 0.00 | 0.00 | 0.00 | 99 | 1013.4 |
| 20260906025341 | 73 | 323 | 0.0 | 0.0 | 0.00 | 0.00 | 0.00 | 99 | 1013.5 |
| 20260906024840 | 72 | 322 | 0.0 | 0.0 | 0.00 | 0.00 | 0.00 | 98 | 1013.3 |
| 20260906024339 | 73 | 322 | 0.0 | 0.0 | 0.00 | 0.00 | 0.00 | 98 | 1013.2 |
| 20260906023835 | 73 | 324 | 0.0 | 0.0 | 0.00 | 0.00 | 0.00 | 98 | 1013.2 |
| 20260906023331 | 73 | 342 | 0.0 | 0.0 | 0.00 | 0.00 | 0.00 | 98 | 1013.0 |
| 20260906022826 | 73 | 13 | 0.0 | 0.0 | 0.00 | 0.00 | 0.00 | 97 | 1013.0 |
| 20260906022321 | 73 | 13 | 0.0 | 0.0 | 0.00 | 0.00 | 0.00 | 97 | 1013.0 |
| 20260906021817 | 74 | 124 | 0.0 | 0.0 | 0.00 | 0.00 | 0.00 | 97 | 1012.8 |
| 20260906021315 | 74 | 123 | 0.0 | 0.0 | 0.00 | 0.00 | 0.00 | 97 | 1012.9 |
| 20260906020810 | 74 | 91 | 0.0 | 0.0 | 0.00 | 0.00 | 0.00 | 97 | 1012.7 |
| 20260906020310 | 74 | 98 | 0.0 | 0.0 | 0.00 | 0.00 | 0.00 | 97 | 1012.7 |
| 20260906015804 | 74 | 88 | 0.0 | 0.0 | 0.00 | 0.00 | 0.00 | 97 | 1012.7 |
| 20260906015305 | 75 | 89 | 0.0 | 1.0 | 0.00 | 0.00 | 0.00 | 97 | 1012.5 |
| 20260906014803 | 75 | 97 | 2.0 | 2.0 | 0.00 | 0.00 | 0.00 | 96 | 1012.5 |
| 20260906014258 | 75 | 164 | 0.0 | 0.0 | 0.00 | 0.00 | 0.00 | 96 | 1012.4 |
| 20260906013754 | 75 | 169 | 0.0 | 0.0 | 0.00 | 0.00 | 0.00 | 96 | 1012.3 |
| 20260906013249 | 75 | 169 | 0.0 | 0.0 | 0.00 | 0.00 | 0.00 | 96 | 1012.4 |
| 20260906012745 | 76 | 48 | 0.0 | 0.0 | 0.00 | 0.00 | 0.00 | 95 | 1012.4 |
| 20260906012240 | 76 | 38 | 1.0 | 1.0 | 0.00 | 0.00 | 0.00 | 95 | 1012.3 |
| 20260906011735 | 76 | 94 | 1.0 | 2.0 | 0.00 | 0.00 | 0.00 | 95 | 1012.2 |
| 20260906011234 | 77 | 108 | 3.0 | 3.0 | 0.00 | 0.00 | 0.00 | 94 | 1012.2 |
| 20260906010730 | 77 | 84 | 1.0 | 1.0 | 0.00 | 0.00 | 0.00 | 94 | 1012.3 |
| 20260906010226 | 77 | 112 | 0.0 | 0.0 | 0.00 | 0.00 | 0.00 | 93 | 1012.1 |
| 20260906005721 | 77 | 77 | 1.0 | 2.0 | 0.00 | 0.00 | 0.00 | 93 | 1012.0 |
| 20260906005220 | 78 | 55 | 3.0 | 3.0 | 0.00 | 0.00 | 0.00 | 93 | 1012.1 |
| 20260906004719 | 78 | 77 | 4.0 | 5.0 | 0.00 | 0.00 | 0.00 | 93 | 1012.1 |
| 20260906004214 | 79 | 95 | 2.0 | 2.0 | 0.00 | 0.00 | 0.00 | 92 | 1012.0 |
| 20260906003709 | 79 | 73 | 1.0 | 1.0 | 0.00 | 0.00 | 0.00 | 92 | 1011.9 |
| 20260906003205 | 80 | 56 | 2.0 | 2.0 | 0.00 | 0.00 | 0.00 | 92 | 1011.8 |
| 20260906002705 | 80 | 72 | 3.0 | 3.0 | 0.00 | 0.00 | 0.00 | 91 | 1012.0 |
| 20260906002200 | 80 | 99 | 3.0 | 5.0 | 0.00 | 0.00 | 0.00 | 91 | 1011.8 |
| 20260906001655 | 81 | 63 | 4.0 | 6.0 | 0.00 | 0.00 | 0.00 | 90 | 1011.6 |
| 20260906001149 | 81 | 76 | 5.0 | 6.0 | 0.00 | 0.00 | 0.00 | 90 | 1011.7 |
| 20260906000645 | 82 | 102 | 3.0 | 6.0 | 0.00 | 0.00 | 0.00 | 90 | 1011.6 |
| 20260906000141 | 82 | 98 | 3.0 | 6.0 | 0.00 | 0.00 | 0.00 | 89 | 1011.9 |
| 20260905235639 | 82 | 78 | 2.0 | 3.0 | 0.00 | 0.00 | 0.00 | 89 | 1011.9 |
| 20260905235135 | 82 | 81 | 3.0 | 5.0 | 0.00 | 0.00 | 0.00 | 88 | 1012.0 |
| 20260905234630 | 83 | 69 | 2.0 | 2.0 | 0.00 | 0.00 | 0.00 | 87 | 1011.9 |
| 20260905234126 | 84 | 13 | 4.0 | 5.0 | 0.00 | 0.00 | 0.00 | 86 | 1011.9 |
| 20260905233626 | 84 | 72 | 1.0 | 2.0 | 0.00 | 0.00 | 0.00 | 85 | 1011.8 |
| 20260905233119 | 85 | 33 | 2.0 | 2.0 | 0.00 | 0.00 | 0.00 | 83 | 1011.7 |
| 20260905232615 | 85 | 114 | 2.0 | 2.0 | 0.00 | 0.00 | 0.00 | 83 | 1011.7 |
| 20260905232111 | 85 | 105 | 1.0 | 2.0 | 0.00 | 0.00 | 0.00 | 83 | 1011.6 |
| 20260905231606 | 84 | 83 | 2.0 | 2.0 | 0.00 | 0.00 | 0.00 | 83 | 1011.6 |
| 20260905231102 | 85 | 68 | 1.0 | 2.0 | 0.00 | 0.00 | 0.00 | 84 | 1011.8 |
| 20260905230602 | 85 | 48 | 1.0 | 2.0 | 0.00 | 0.00 | 0.00 | 83 | 1011.8 |
| 20260905230101 | 85 | 78 | 1.0 | 1.0 | 0.00 | 0.00 | 0.00 | 82 | 1011.6 |
| 20260905225600 | 85 | 54 | 2.0 | 2.0 | 0.00 | 0.00 | 0.00 | 81 | 1011.5 |
| 20260905225055 | 86 | 93 | 2.0 | 2.0 | 0.00 | 0.00 | 0.00 | 81 | 1011.4 |
| 20260905224555 | 86 | 61 | 3.0 | 3.0 | 0.00 | 0.00 | 0.00 | 80 | 1011.4 |
| 20260905224055 | 86 | 115 | 3.0 | 5.0 | 0.00 | 0.00 | 0.00 | 80 | 1011.1 |
| 20260905223552 | 86 | 56 | 3.0 | 6.0 | 0.00 | 0.00 | 0.00 | 79 | 1011.0 |
| 20260905223048 | 86 | 87 | 3.0 | 3.0 | 0.00 | 0.00 | 0.00 | 79 | 1011.2 |
| 20260905222542 | 87 | 124 | 7.0 | 8.0 | 0.00 | 0.00 | 0.00 | 77 | 1011.0 |
| 20260905222037 | 87 | 109 | 2.0 | 3.0 | 0.00 | 0.00 | 0.00 | 78 | 1010.9 |
| 20260905221534 | 87 | 98 | 5.0 | 8.0 | 0.00 | 0.00 | 0.00 | 76 | 1010.8 |
| 20260905221030 | 88 | 203 | 1.0 | 2.0 | 0.00 | 0.00 | 0.00 | 76 | 1011.1 |
| 20260905220525 | 87 | 132 | 3.0 | 3.0 | 0.00 | 0.00 | 0.00 | 77 | 1011.0 |
| 20260905220021 | 88 | 81 | 5.0 | 8.0 | 0.00 | 0.00 | 0.00 | 76 | 1011.0 |
| 20260905215515 | 88 | 85 | 6.0 | 7.0 | 0.00 | 0.00 | 0.00 | 75 | 1011.0 |
| 20260905215011 | 88 | 68 | 4.0 | 5.0 | 0.00 | 0.00 | 0.00 | 77 | 1011.1 |
| 20260905214508 | 88 | 42 | 2.0 | 2.0 | 0.00 | 0.00 | 0.00 | 77 | 1011.0 |
| 20260905214007 | 88 | 66 | 5.0 | 6.0 | 0.00 | 0.00 | 0.00 | 76 | 1011.0 |
| 20260905213503 | 88 | 59 | 3.0 | 6.0 | 0.00 | 0.00 | 0.00 | 76 | 1011.2 |
| 20260905213004 | 89 | 64 | 4.0 | 5.0 | 0.00 | 0.00 | 0.00 | 76 | 1010.9 |
| 20260905212459 | 88 | 98 | 5.0 | 7.0 | 0.00 | 0.00 | 0.00 | 75 | 1010.9 |
| 20260905211957 | 89 | 68 | 3.0 | 3.0 | 0.00 | 0.00 | 0.00 | 76 | 1011.0 |
| 20260905211453 | 89 | 58 | 5.0 | 7.0 | 0.00 | 0.00 | 0.00 | 74 | 1011.0 |
| 20260905210949 | 89 | 112 | 7.0 | 8.0 | 0.00 | 0.00 | 0.00 | 75 | 1011.1 |
| 20260905210444 | 89 | 82 | 5.0 | 6.0 | 0.00 | 0.00 | 0.00 | 76 | 1011.0 |
| 20260905205944 | 89 | 40 | 4.0 | 6.0 | 0.00 | 0.00 | 0.00 | 76 | 1011.2 |
| 20260905205438 | 89 | 22 | 4.0 | 5.0 | 0.00 | 0.00 | 0.00 | 77 | 1011.3 |
| 20260905204937 | 89 | 86 | 2.0 | 2.0 | 0.00 | 0.00 | 0.00 | 78 | 1011.5 |
| 20260905204433 | 88 | 30 | 6.0 | 7.0 | 0.00 | 0.00 | 0.00 | 78 | 1011.5 |
| 20260905203932 | 89 | 47 | 3.0 | 6.0 | 0.00 | 0.00 | 0.00 | 78 | 1011.3 |
| 20260905203428 | 89 | 47 | 4.0 | 6.0 | 0.00 | 0.00 | 0.00 | 79 | 1011.5 |
| 20260905202923 | 89 | 62 | 6.0 | 8.0 | 0.00 | 0.00 | 0.00 | 77 | 1011.6 |
| 20260905202419 | 89 | 45 | 5.0 | 7.0 | 0.00 | 0.00 | 0.00 | 78 | 1011.4 |
| 20260905201914 | 90 | 12 | 6.0 | 8.0 | 0.00 | 0.00 | 0.00 | 75 | 1011.4 |
| 20260905201409 | 90 | 48 | 4.0 | 5.0 | 0.00 | 0.00 | 0.00 | 75 | 1011.5 |
| 20260905200909 | 89 | 27 | 6.0 | 8.0 | 0.00 | 0.00 | 0.00 | 75 | 1011.8 |
| 20260905200405 | 89 | 35 | 3.0 | 3.0 | 0.00 | 0.00 | 0.00 | 78 | 1011.8 |
| 20260905195903 | 89 | 357 | 3.0 | 3.0 | 0.00 | 0.00 | 0.00 | 75 | 1011.9 |
| 20260905195358 | 88 | 40 | 3.0 | 5.0 | 0.00 | 0.00 | 0.00 | 75 | 1012.0 |
| 20260905194854 | 89 | 50 | 3.0 | 5.0 | 0.00 | 0.00 | 0.00 | 74 | 1011.9 |
| 20260905194353 | 89 | 36 | 1.0 | 1.0 | 0.00 | 0.00 | 0.00 | 78 | 1012.0 |
| 20260905193853 | 88 | 54 | 3.0 | 3.0 | 0.00 | 0.00 | 0.00 | 76 | 1012.2 |
| 20260905193348 | 90 | 23 | 2.0 | 2.0 | 0.00 | 0.00 | 0.00 | 76 | 1012.2 |
| 20260905192844 | 89 | 4 | 3.0 | 3.0 | 0.00 | 0.00 | 0.00 | 77 | 1012.4 |
| 20260905192339 | 91 | 51 | 6.0 | 8.0 | 0.00 | 0.00 | 0.00 | 74 | 1012.2 |
| 20260905191839 | 90 | 44 | 3.0 | 3.0 | 0.00 | 0.00 | 0.00 | 76 | 1012.3 |
| 20260905191338 | 89 | 20 | 4.0 | 5.0 | 0.00 | 0.00 | 0.00 | 75 | 1012.3 |
| 20260905190837 | 89 | 20 | 4.0 | 5.0 | 0.00 | 0.00 | 0.00 | 78 | 1012.4 |
| 20260905190330 | 89 | 98 | 3.0 | 3.0 | 0.00 | 0.00 | 0.00 | 78 | 1012.5 |
| 20260905185829 | 89 | 4 | 4.0 | 5.0 | 0.00 | 0.00 | 0.00 | 76 | 1012.5 |
| 20260905185319 | 89 | 77 | 2.0 | 2.0 | 0.00 | 0.00 | 0.00 | 78 | 1012.8 |
| 20260905184818 | 88 | 41 | 4.0 | 5.0 | 0.00 | 0.00 | 0.00 | 79 | 1012.7 |
| 20260905184317 | 88 | 86 | 3.0 | 3.0 | 0.00 | 0.00 | 0.00 | 77 | 1012.9 |
| 20260905183815 | 88 | 4 | 4.0 | 5.0 | 0.00 | 0.00 | 0.00 | 78 | 1012.7 |
| 20260905183311 | 87 | 87 | 3.0 | 3.0 | 0.00 | 0.00 | 0.00 | 80 | 1012.6 |
| 20260905182806 | 87 | 12 | 3.0 | 3.0 | 0.00 | 0.00 | 0.00 | 81 | 1012.9 |
| 20260905182306 | 86 | 23 | 4.0 | 5.0 | 0.00 | 0.00 | 0.00 | 81 | 1013.0 |
| 20260905181801 | 87 | 56 | 3.0 | 3.0 | 0.00 | 0.00 | 0.00 | 81 | 1012.8 |
| 20260905181301 | 87 | 41 | 3.0 | 3.0 | 0.00 | 0.00 | 0.00 | 83 | 1013.1 |
| 20260905180800 | 86 | 95 | 3.0 | 5.0 | 0.00 | 0.00 | 0.00 | 81 | 1013.0 |
| 20260905180255 | 87 | 68 | 2.0 | 3.0 | 0.00 | 0.00 | 0.00 | 80 | 1013.0 |
| 20260905175750 | 86 | 59 | 4.0 | 5.0 | 0.00 | 0.00 | 0.00 | 81 | 1013.0 |
| 20260905175245 | 86 | 33 | 1.0 | 1.0 | 0.00 | 0.00 | 0.00 | 81 | 1013.0 |
| 20260905174740 | 86 | 23 | 4.0 | 5.0 | 0.00 | 0.00 | 0.00 | 80 | 1012.8 |
| 20260905174235 | 86 | 65 | 2.0 | 3.0 | 0.00 | 0.00 | 0.00 | 82 | 1012.8 |
| 20260905173726 | 86 | 88 | 6.0 | 7.0 | 0.00 | 0.00 | 0.00 | 80 | 1012.8 |
| 20260905173221 | 86 | 28 | 3.0 | 3.0 | 0.00 | 0.00 | 0.00 | 81 | 1013.2 |
| 20260905172721 | 86 | 36 | 3.0 | 3.0 | 0.00 | 0.00 | 0.00 | 80 | 1012.9 |
| 20260905172215 | 85 | 32 | 3.0 | 3.0 | 0.00 | 0.00 | 0.00 | 81 | 1012.8 |
| 20260905171711 | 86 | 76 | 3.0 | 5.0 | 0.00 | 0.00 | 0.00 | 81 | 1012.8 |
| 20260905171207 | 85 | 69 | 2.0 | 3.0 | 0.00 | 0.00 | 0.00 | 81 | 1012.8 |
| 20260905170704 | 85 | 43 | 4.0 | 5.0 | 0.00 | 0.00 | 0.00 | 80 | 1012.8 |
| 20260905170203 | 86 | 70 | 3.0 | 5.0 | 0.00 | 0.00 | 0.00 | 80 | 1012.7 |
| 20260905165658 | 85 | 64 | 1.0 | 1.0 | 0.00 | 0.00 | 0.00 | 82 | 1012.9 |
| 20260905165153 | 85 | 79 | 3.0 | 3.0 | 0.00 | 0.00 | 0.00 | 81 | 1012.9 |
| 20260905164648 | 85 | 104 | 3.0 | 5.0 | 0.00 | 0.00 | 0.00 | 82 | 1012.9 |
| 20260905164147 | 85 | 50 | 7.0 | 8.0 | 0.00 | 0.00 | 0.00 | 81 | 1013.0 |
| 20260905163643 | 85 | 62 | 4.0 | 5.0 | 0.00 | 0.00 | 0.00 | 82 | 1012.9 |
| 20260905163140 | 85 | 51 | 1.0 | 1.0 | 0.00 | 0.00 | 0.00 | 84 | 1013.0 |
| 20260905162636 | 85 | 32 | 2.0 | 3.0 | 0.00 | 0.00 | 0.00 | 82 | 1013.2 |
| 20260905162135 | 85 | 28 | 3.0 | 3.0 | 0.00 | 0.00 | 0.00 | 85 | 1013.1 |
| 20260905161634 | 85 | 46 | 3.0 | 3.0 | 0.00 | 0.00 | 0.00 | 83 | 1013.1 |
| 20260905161132 | 84 | 75 | 1.0 | 2.0 | 0.00 | 0.00 | 0.00 | 84 | 1013.1 |
| 20260905160626 | 84 | 5 | 2.0 | 3.0 | 0.00 | 0.00 | 0.00 | 84 | 1012.9 |
| 20260905160120 | 84 | 21 | 2.0 | 2.0 | 0.00 | 0.00 | 0.00 | 86 | 1012.9 |
| 20260905155615 | 84 | 76 | 2.0 | 2.0 | 0.00 | 0.00 | 0.00 | 84 | 1012.9 |
| 20260905155114 | 84 | 58 | 3.0 | 5.0 | 0.00 | 0.00 | 0.00 | 85 | 1013.0 |
| 20260905154608 | 84 | 22 | 3.0 | 3.0 | 0.00 | 0.00 | 0.00 | 85 | 1012.9 |
| 20260905154104 | 84 | 89 | 3.0 | 3.0 | 0.00 | 0.00 | 0.00 | 84 | 1012.9 |
| 20260905153600 | 84 | 88 | 3.0 | 5.0 | 0.00 | 0.00 | 0.00 | 83 | 1012.8 |
| 20260905153100 | 84 | 78 | 1.0 | 1.0 | 0.00 | 0.00 | 0.00 | 85 | 1012.8 |
| 20260905152555 | 84 | 344 | 4.0 | 5.0 | 0.00 | 0.00 | 0.00 | 85 | 1012.8 |
| 20260905152049 | 84 | 358 | 4.0 | 5.0 | 0.00 | 0.00 | 0.00 | 84 | 1012.6 |
| 20260905151545 | 84 | 81 | 2.0 | 3.0 | 0.00 | 0.00 | 0.00 | 85 | 1012.5 |
| 20260905151040 | 84 | 60 | 2.0 | 2.0 | 0.00 | 0.00 | 0.00 | 85 | 1012.5 |
| 20260905150535 | 83 | 45 | 2.0 | 2.0 | 0.00 | 0.00 | 0.00 | 87 | 1012.3 |
| 20260905150033 | 83 | 39 | 2.0 | 2.0 | 0.00 | 0.00 | 0.00 | 88 | 1012.3 |
| 20260905145526 | 82 | 33 | 2.0 | 2.0 | 0.00 | 0.00 | 0.00 | 89 | 1012.1 |
| 20260905145021 | 82 | 343 | 3.0 | 3.0 | 0.00 | 0.00 | 0.00 | 90 | 1012.2 |
| 20260905144516 | 82 | 26 | 2.0 | 3.0 | 0.00 | 0.00 | 0.00 | 91 | 1012.1 |
| 20260905144015 | 81 | 16 | 3.0 | 5.0 | 0.00 | 0.00 | 0.00 | 91 | 1012.3 |
| 20260905143514 | 80 | 35 | 2.0 | 3.0 | 0.00 | 0.00 | 0.00 | 93 | 1012.2 |
| 20260905143009 | 80 | 17 | 4.0 | 5.0 | 0.00 | 0.00 | 0.00 | 94 | 1012.1 |
| 20260905142508 | 79 | 356 | 2.0 | 2.0 | 0.00 | 0.00 | 0.00 | 96 | 1012.2 |
| 20260905142003 | 78 | 12 | 3.0 | 5.0 | 0.00 | 0.00 | 0.00 | 96 | 1012.2 |
| 20260905141503 | 78 | 22 | 3.0 | 3.0 | 0.00 | 0.00 | 0.00 | 96 | 1012.1 |
| 20260905141000 | 78 | 25 | 2.0 | 2.0 | 0.00 | 0.00 | 0.00 | 97 | 1012.1 |
| 20260905140454 | 77 | 0 | 1.0 | 1.0 | 0.00 | 0.00 | 0.00 | 98 | 1012.0 |
| 20260905135953 | 77 | 357 | 1.0 | 1.0 | 0.00 | 0.00 | 0.00 | 98 | 1012.0 |
| 20260905135449 | 77 | 338 | 0.0 | 0.0 | 0.00 | 0.00 | 0.00 | 99 | 1011.9 |
| 20260905134944 | 76 | 313 | 1.0 | 2.0 | 0.00 | 0.00 | 0.00 | 99 | 1012.0 |
| 20260905134443 | 76 | 40 | 1.0 | 2.0 | 0.00 | 0.00 | 0.00 | 99 | 1012.1 |
| 20260905133943 | 76 | 349 | 2.0 | 2.0 | 0.00 | 0.00 | 0.00 | 99 | 1012.0 |
| 20260905133437 | 75 | 340 | 1.0 | 2.0 | 0.00 | 0.00 | 0.00 | 99 | 1012.1 |
| 20260905132932 | 75 | 357 | 3.0 | 3.0 | 0.00 | 0.00 | 0.00 | 99 | 1012.0 |
| 20260905132427 | 75 | 16 | 2.0 | 2.0 | 0.00 | 0.00 | 0.00 | 99 | 1011.8 |
| 20260905131922 | 74 | 350 | 0.0 | 0.0 | 0.00 | 0.00 | 0.00 | 99 | 1011.5 |
| 20260905131418 | 74 | 326 | 0.0 | 1.0 | 0.00 | 0.00 | 0.00 | 99 | 1011.6 |
| 20260905130912 | 74 | 320 | 0.0 | 0.0 | 0.00 | 0.00 | 0.00 | 99 | 1011.3 |
| 20260905130412 | 73 | 18 | 0.0 | 1.0 | 0.00 | 0.00 | 0.00 | 99 | 1011.4 |
| 20260905125906 | 73 | 292 | 0.0 | 0.0 | 0.00 | 0.00 | 0.00 | 99 | 1011.2 |
| 20260905125407 | 73 | 305 | 1.0 | 1.0 | 0.00 | 0.00 | 0.00 | 99 | 1011.3 |
| 20260905124902 | 73 | 324 | 1.0 | 1.0 | 0.00 | 0.00 | 0.00 | 99 | 1011.3 |
| 20260905124359 | 72 | 344 | 1.0 | 1.0 | 0.00 | 0.00 | 0.00 | 99 | 1011.4 |
| 20260905123858 | 72 | 324 | 1.0 | 1.0 | 0.00 | 0.00 | 0.00 | 99 | 1011.5 |
| 20260905123355 | 72 | 331 | 2.0 | 2.0 | 0.00 | 0.00 | 0.00 | 99 | 1011.4 |
| 20260905122850 | 71 | 320 | 3.0 | 3.0 | 0.00 | 0.00 | 0.00 | 99 | 1011.3 |
| 20260905122349 | 71 | 341 | 0.0 | 0.0 | 0.00 | 0.00 | 0.00 | 99 | 1011.1 |
| 20260905121844 | 72 | 327 | 0.0 | 0.0 | 0.00 | 0.00 | 0.00 | 99 | 1011.0 |
| 20260905121341 | 72 | 307 | 0.0 | 0.0 | 0.00 | 0.00 | 0.00 | 99 | 1011.0 |
| 20260905120839 | 71 | 292 | 0.0 | 0.0 | 0.00 | 0.00 | 0.00 | 99 | 1010.8 |
| 20260905120334 | 71 | 284 | 0.0 | 0.0 | 0.00 | 0.00 | 0.00 | 99 | 1010.7 |
| 20260905115830 | 71 | 284 | 0.0 | 0.0 | 0.00 | 0.00 | 0.00 | 99 | 1010.8 |
| 20260905115329 | 71 | 283 | 0.0 | 0.0 | 0.00 | 0.00 | 0.00 | 99 | 1010.7 |
| 20260905114829 | 71 | 286 | 0.0 | 0.0 | 0.00 | 0.00 | 0.00 | 99 | 1010.7 |
| 20260905114328 | 71 | 294 | 0.0 | 0.0 | 0.00 | 0.00 | 0.00 | 99 | 1010.7 |
| 20260905113822 | 69 | 308 | 0.0 | 0.0 | 0.00 | 0.00 | 0.00 | 99 | 1010.7 |
| 20260905113318 | 70 | 313 | 0.0 | 0.0 | 0.00 | 0.00 | 0.00 | 99 | 1010.5 |
| 20260905112813 | 69 | 257 | 0.0 | 0.0 | 0.00 | 0.00 | 0.00 | 99 | 1010.4 |
| 20260905112308 | 69 | 252 | 0.0 | 0.0 | 0.00 | 0.00 | 0.00 | 99 | 1010.6 |
| 20260905111803 | 69 | 252 | 0.0 | 0.0 | 0.00 | 0.00 | 0.00 | 99 | 1010.3 |
| 20260905111257 | 69 | 251 | 0.0 | 0.0 | 0.00 | 0.00 | 0.00 | 99 | 1010.3 |
| 20260905110756 | 69 | 337 | 0.0 | 0.0 | 0.00 | 0.00 | 0.00 | 99 | 1010.5 |
| 20260905110255 | 69 | 337 | 0.0 | 0.0 | 0.00 | 0.00 | 0.00 | 99 | 1010.6 |
| 20260905105752 | 69 | 338 | 0.0 | 0.0 | 0.00 | 0.00 | 0.00 | 99 | 1010.6 |
| 20260905105250 | 69 | 338 | 0.0 | 0.0 | 0.00 | 0.00 | 0.00 | 99 | 1010.8 |
| 20260905104746 | 69 | 314 | 0.0 | 0.0 | 0.00 | 0.00 | 0.00 | 99 | 1010.6 |
| 20260905104242 | 69 | 294 | 0.0 | 0.0 | 0.00 | 0.00 | 0.00 | 99 | 1010.6 |
| 20260905103741 | 70 | 294 | 0.0 | 0.0 | 0.00 | 0.00 | 0.00 | 99 | 1010.6 |
| 20260905103237 | 70 | 289 | 0.0 | 0.0 | 0.00 | 0.00 | 0.00 | 99 | 1010.6 |
| 20260905102733 | 70 | 305 | 0.0 | 0.0 | 0.00 | 0.00 | 0.00 | 99 | 1010.4 |
| 20260905102229 | 70 | 306 | 0.0 | 0.0 | 0.00 | 0.00 | 0.00 | 99 | 1010.6 |
| 20260905101729 | 70 | 305 | 0.0 | 0.0 | 0.00 | 0.00 | 0.00 | 99 | 1010.4 |
| 20260905101227 | 70 | 306 | 0.0 | 0.0 | 0.00 | 0.00 | 0.00 | 99 | 1010.4 |
| 20260905100723 | 70 | 311 | 0.0 | 0.0 | 0.00 | 0.00 | 0.00 | 99 | 1010.4 |
| 20260905100218 | 71 | 277 | 0.0 | 0.0 | 0.00 | 0.00 | 0.00 | 99 | 1010.4 |
| 20260905095718 | 71 | 276 | 0.0 | 0.0 | 0.00 | 0.00 | 0.00 | 99 | 1010.2 |